This is the latest recevied weather packets stored in our database for station/object OK3MS-5. If no packets are shown the sender has not sent any weather packets the latest 10 day(s).
| Time | Temp. | Humidity | Pressure | Rain* | Wind** | Luminosity | Snow |
|---|---|---|---|---|---|---|---|
| 1777246509 | 2.22° C | 83% | 1025.1 hPa | 0 mm | - | 0 W/m² | - |
| 1777246202 | 1.67° C | 81% | 1025.1 hPa | 0 mm | - | 0 W/m² | - |
| 1777245911 | 1.67° C | 85% | 1025.2 hPa | 0 mm | - | 0 W/m² | - |
| 1777245602 | 2.22° C | 82% | 1025 hPa | 0 mm | - | 0 W/m² | - |
| 1777245308 | 2.22° C | 83% | 1025 hPa | 0 mm | - | 0 W/m² | - |
| 1777245005 | 2.22° C | 85% | 1025 hPa | 0 mm | - | 0 W/m² | - |
| 1777244704 | 2.22° C | 84% | 1025.1 hPa | 0 mm | - | 0 W/m² | - |
| 1777244410 | 2.22° C | 82% | 1024.9 hPa | 0 mm | - | 0 W/m² | - |
| 1777244105 | 2.78° C | 80% | 1024.9 hPa | 0 mm | - | 0 W/m² | - |
| 1777243808 | 3.33° C | 79% | 1024.8 hPa | 0 mm | - | 0 W/m² | - |
| 1777243504 | 3.33° C | 78% | 1024.8 hPa | 0 mm | - | 0 W/m² | - |
| 1777243208 | 3.33° C | 78% | 1024.8 hPa | 0 mm | - | 0 W/m² | - |
| 1777242903 | 3.33° C | 76% | 1025 hPa | 0 mm | - | 0 W/m² | - |
| 1777242608 | 3.33° C | 75% | 1024.8 hPa | 0 mm | - | 0 W/m² | - |
| 1777242302 | 3.33° C | 78% | 1024.9 hPa | 0 mm | - | 0 W/m² | - |
| 1777242003 | 3.33° C | 79% | 1024.9 hPa | 0 mm | - | 0 W/m² | - |
| 1777241709 | 3.33° C | 78% | 1024.8 hPa | 0 mm | - | 0 W/m² | - |
| 1777241404 | 3.89° C | 75% | 1024.6 hPa | 0 mm | - | 0 W/m² | - |
| 1777241104 | 3.89° C | 74% | 1024.6 hPa | 0 mm | - | 0 W/m² | - |
| 1777240812 | 3.89° C | 75% | 1024.6 hPa | 0 mm | - | 0 W/m² | - |
| 1777240503 | 3.89° C | 74% | 1024.6 hPa | 0 mm | - | 0 W/m² | - |
| 1777240204 | 4.44° C | 74% | 1024.5 hPa | 0 mm | - | 0 W/m² | - |
* Rain latest hour (hover to see other rain measurements)
** Current wind speed in m/s (hover to see current wind gust speed)